08.05.2024;21:00;14
08.05.2024;20:00;14
08.05.2024;19:00;13
08.05.2024;18:00;16
08.05.2024;17:00;18
08.05.2024;16:00;18
08.05.2024;15:00;18
08.05.2024;14:00;23
08.05.2024;13:00;23
08.05.2024;12:00;21
08.05.2024;11:00;18
08.05.2024;10:00;17
08.05.2024;09:00;15
08.05.2024;08:00;12
08.05.2024;07:00;13
08.05.2024;06:00;15
08.05.2024;05:00;19
08.05.2024;04:00;18
08.05.2024;03:00;19
08.05.2024;02:00;14
08.05.2024;01:00;13
07.05.2024;24:00;13
07.05.2024;23:00;11
07.05.2024;22:00;11
07.05.2024;21:00;13
07.05.2024;20:00;12
07.05.2024;19:00;12
07.05.2024;18:00;9
07.05.2024;17:00;11
07.05.2024;16:00;7
07.05.2024;15:00;7
07.05.2024;14:00;9
07.05.2024;13:00;11
07.05.2024;12:00;10
07.05.2024;11:00;11
07.05.2024;10:00;11
07.05.2024;09:00;12
07.05.2024;08:00;10
07.05.2024;07:00;8
07.05.2024;06:00;5
07.05.2024;05:00;5
07.05.2024;04:00;4
07.05.2024;03:00;4
07.05.2024;02:00;5
07.05.2024;01:00;5
06.05.2024;24:00;6
06.05.2024;23:00;6
06.05.2024;22:00;5
06.05.2024;21:00;8
06.05.2024;20:00;9
06.05.2024;19:00;10
06.05.2024;18:00;9
06.05.2024;17:00;8
06.05.2024;16:00;5
06.05.2024;15:00;5
06.05.2024;14:00;9
06.05.2024;13:00;4
06.05.2024;12:00;4
06.05.2024;11:00;7
06.05.2024;10:00;7
06.05.2024;09:00;9
06.05.2024;08:00;12
06.05.2024;07:00;8
06.05.2024;06:00;6
06.05.2024;05:00;5
06.05.2024;04:00;4
06.05.2024;03:00;4
06.05.2024;02:00;5
06.05.2024;01:00;5
05.05.2024;24:00;5
05.05.2024;23:00;5
05.05.2024;22:00;5
05.05.2024;21:00;2
05.05.2024;20:00;1
05.05.2024;19:00;2
05.05.2024;18:00;1
05.05.2024;17:00;1
05.05.2024;16:00;1
05.05.2024;15:00;1
05.05.2024;14:00;4
05.05.2024;13:00;2
05.05.2024;12:00;3
05.05.2024;11:00;3
05.05.2024;10:00;3
05.05.2024;09:00;4
05.05.2024;08:00;6
05.05.2024;07:00;10
05.05.2024;06:00;14
05.05.2024;05:00;17
05.05.2024;04:00;22
05.05.2024;03:00;25
05.05.2024;02:00;24
05.05.2024;01:00;21
04.05.2024;24:00;22
04.05.2024;23:00;23
04.05.2024;22:00;21
04.05.2024;21:00;16
04.05.2024;20:00;11
04.05.2024;19:00;8
04.05.2024;18:00;7
04.05.2024;17:00;5
04.05.2024;16:00;4
04.05.2024;15:00;5
04.05.2024;14:00;6
04.05.2024;13:00;8
04.05.2024;12:00;7
04.05.2024;11:00;7
04.05.2024;10:00;6
04.05.2024;09:00;5
04.05.2024;08:00;7
04.05.2024;07:00;7
04.05.2024;06:00;8
04.05.2024;05:00;9
04.05.2024;04:00;10
04.05.2024;03:00;11
04.05.2024;02:00;11
04.05.2024;01:00;12
03.05.2024;24:00;12
03.05.2024;23:00;13
03.05.2024;22:00;13
03.05.2024;21:00;15
03.05.2024;20:00;15
03.05.2024;19:00;15
03.05.2024;18:00;12
03.05.2024;17:00;10
03.05.2024;16:00;8
03.05.2024;15:00;7
03.05.2024;14:00;7
03.05.2024;13:00;6
03.05.2024;12:00;5
03.05.2024;11:00;5
03.05.2024;10:00;5
03.05.2024;09:00;5
03.05.2024;08:00;4
03.05.2024;07:00;4
03.05.2024;06:00;2
03.05.2024;05:00;2
03.05.2024;04:00;2
03.05.2024;03:00;2
03.05.2024;02:00;2
03.05.2024;01:00;2
